User: anonymous
Location: Caltech
(34.1382°N, 118.1253°W)
Time: 03:26:32
(UTC-07:00)
Language:

TMSAT-1 - Orbit

View from above orbital plane
View from above orbital plane
View from above satellite
View from above satellite

Ground track
Ground track

The orbit data is extracted from the following two-line orbital elements,

1 25396U 98043C   14274.81265772  .00000192  00000-0  10135-3 0  9664
2 25396 098.4521 232.4688 0002128 001.1809 055.7589 14.24201408843337
Epoch (UTC): 01 October 2014 19:30:13
Eccentricity: 0.0002128
inclination: 98.4521°
perigee height: 809 km
apogee height: 813 km
right ascension of ascending node: 232.4688°
argument of perigee: 1.1809°
revolutions per day: 14.24201408
mean anomaly at epoch: 55.7589°
orbit number at epoch: 84333

The dashed part of the orbit path shows where the satellite is in the earth's shadow,  

DLR